JBU169 KRIC-KMCO

Flight info

Callsign JBU169
Flight time 1h 32m
Altitude 34000
Route KALLI7 DRAIK GSO Q83 ROYCO Q85 LPERD GTOUT1
Aircraft A21N/M-SDE2E3FGHIRWXY/LB1

Departure

Time 2026-05-06 19:03
Airport Richmond International Airport (KRIC)

Arrival

Time 2026-05-06 20:36
Airport Orlando International Airport (KMCO)
Time Latitude Longitude Altitude Speed Heading
2026-05-06 18:48 37.50624 -77.33067 175 ft 0 kts 285°
2026-05-06 18:54 37.50624 -77.33066 175 ft 2 kts 285°
2026-05-06 18:55 37.50619 -77.33047 175 ft 2 kts 298°
2026-05-06 18:55 37.50608 -77.33031 175 ft 2 kts 335°
2026-05-06 18:55 37.50593 -77.33029 175 ft 2 kts 10°
2026-05-06 18:55 37.50588 -77.33030 175 ft 0 kts 12°
2026-05-06 18:59 37.50605 -77.33018 175 ft 6 kts 36°
2026-05-06 18:59 37.50656 -77.32974 175 ft 13 kts 30°
2026-05-06 19:00 37.50757 -77.32934 176 ft 16 kts 13°
2026-05-06 19:00 37.50868 -77.32901 175 ft 17 kts 14°
2026-05-06 19:00 37.50962 -77.32815 173 ft 18 kts 64°
2026-05-06 19:00 37.51063 -77.32754 173 ft 17 kts 13°
2026-05-06 19:01 37.51178 -77.32720 168 ft 19 kts 13°
2026-05-06 19:01 37.51320 -77.32679 175 ft 21 kts 12°
2026-05-06 19:01 37.51456 -77.32637 176 ft 20 kts 12°
2026-05-06 19:01 37.51595 -77.32594 175 ft 21 kts 23°
2026-05-06 19:02 37.51637 -77.32446 178 ft 18 kts 96°
2026-05-06 19:02 37.51614 -77.32317 179 ft 15 kts 145°
2026-05-06 19:02 37.51437 -77.32179 180 ft 58 kts 147°
2026-05-06 19:02 37.50913 -77.31756 172 ft 123 kts 147°
2026-05-06 19:03 37.50056 -77.31058 277 ft 161 kts 153°
2026-05-06 19:03 37.49086 -77.30277 719 ft 167 kts 150°
2026-05-06 19:03 37.48094 -77.29708 1473 ft 148 kts 185°
2026-05-06 19:03 37.47228 -77.30159 2169 ft 137 kts 221°
2026-05-06 19:04 37.46654 -77.31255 2496 ft 169 kts 249°
2026-05-06 19:04 37.46539 -77.32859 2744 ft 202 kts 266°
2026-05-06 19:04 37.46611 -77.34752 3136 ft 225 kts 268°
2026-05-06 19:04 37.46707 -77.36694 4028 ft 225 kts 269°
2026-05-06 19:05 37.46788 -77.38665 4903 ft 227 kts 269°
2026-05-06 19:05 37.46854 -77.40674 5707 ft 232 kts 269°
2026-05-06 19:05 37.46911 -77.42722 6561 ft 235 kts 269°
2026-05-06 19:05 37.46962 -77.44798 7362 ft 240 kts 269°
2026-05-06 19:06 37.47011 -77.46919 8166 ft 245 kts 269°
2026-05-06 19:06 37.47059 -77.49084 8990 ft 250 kts 269°
2026-05-06 19:06 37.47106 -77.51297 9847 ft 255 kts 269°
2026-05-06 19:06 37.47152 -77.53575 10441 ft 270 kts 269°
2026-05-06 19:07 37.47140 -77.55999 10764 ft 292 kts 265°
2026-05-06 19:07 37.46981 -77.58616 11056 ft 312 kts 264°
2026-05-06 19:07 37.46773 -77.61418 11332 ft 330 kts 264°
2026-05-06 19:07 37.46480 -77.64353 11578 ft 346 kts 259°
2026-05-06 19:08 37.45866 -77.67270 11810 ft 359 kts 253°
2026-05-06 19:08 37.45078 -77.70287 12151 ft 366 kts 252°
2026-05-06 19:08 37.44258 -77.73331 12551 ft 369 kts 252°
2026-05-06 19:08 37.43430 -77.76402 13007 ft 372 kts 253°
2026-05-06 19:09 37.42601 -77.79490 13461 ft 373 kts 253°
2026-05-06 19:09 37.41781 -77.82550 13875 ft 375 kts 253°
2026-05-06 19:09 37.40945 -77.85673 14288 ft 378 kts 253°
2026-05-06 19:09 37.40105 -77.88810 14708 ft 379 kts 253°
2026-05-06 19:10 37.39261 -77.91962 15123 ft 381 kts 253°
2026-05-06 19:10 37.38412 -77.95125 15522 ft 383 kts 253°
2026-05-06 19:10 37.37561 -77.98295 16029 ft 381 kts 253°
2026-05-06 19:10 37.36713 -78.01450 16496 ft 381 kts 253°
2026-05-06 19:11 37.35861 -78.04614 16840 ft 384 kts 253°
2026-05-06 19:11 37.35014 -78.07760 17158 ft 386 kts 253°
2026-05-06 19:11 37.34151 -78.10974 17303 ft 391 kts 252°
2026-05-06 19:11 37.33272 -78.14226 17528 ft 394 kts 252°
2026-05-06 19:12 37.32388 -78.17487 17815 ft 394 kts 252°
2026-05-06 19:12 37.31505 -78.20747 18084 ft 395 kts 252°
2026-05-06 19:12 37.30617 -78.24021 18295 ft 396 kts 252°
2026-05-06 19:12 37.29726 -78.27302 18502 ft 398 kts 252°
2026-05-06 19:13 37.28832 -78.30592 18706 ft 398 kts 252°
2026-05-06 19:13 37.27997 -78.33845 18948 ft 397 kts 254°
2026-05-06 19:13 37.27246 -78.37125 19151 ft 398 kts 255°
2026-05-06 19:13 37.26498 -78.40481 19391 ft 399 kts 255°
2026-05-06 19:14 37.25749 -78.43840 19606 ft 400 kts 255°
2026-05-06 19:14 37.24997 -78.47203 19831 ft 400 kts 255°
2026-05-06 19:14 37.24243 -78.50565 20066 ft 401 kts 256°
2026-05-06 19:14 37.23492 -78.53899 20296 ft 401 kts 256°
2026-05-06 19:15 37.22732 -78.57271 20542 ft 402 kts 256°
2026-05-06 19:15 37.21970 -78.60646 20810 ft 403 kts 256°
2026-05-06 19:15 37.21216 -78.63983 21069 ft 404 kts 256°
2026-05-06 19:15 37.20447 -78.67378 21331 ft 405 kts 256°
2026-05-06 19:16 37.19677 -78.70772 21664 ft 404 kts 256°
2026-05-06 19:16 37.18907 -78.74160 22011 ft 404 kts 256°
2026-05-06 19:16 37.18135 -78.77556 22275 ft 406 kts 256°
2026-05-06 19:16 37.17355 -78.80981 22400 ft 411 kts 256°
2026-05-06 19:17 37.16567 -78.84437 22621 ft 414 kts 256°
2026-05-06 19:17 37.15774 -78.87909 22923 ft 414 kts 256°
2026-05-06 19:17 37.14933 -78.91367 23228 ft 416 kts 253°
2026-05-06 19:17 37.13826 -78.94674 23534 ft 420 kts 247°
2026-05-06 19:18 37.12314 -78.97830 23778 ft 426 kts 239°
2026-05-06 19:18 37.10403 -79.00694 24155 ft 430 kts 231°
2026-05-06 19:18 37.08169 -79.03199 24591 ft 432 kts 225°
2026-05-06 19:18 37.05830 -79.05497 25040 ft 432 kts 223°
2026-05-06 19:19 37.03533 -79.07630 25549 ft 428 kts 222°
2026-05-06 19:19 37.01135 -79.09801 26096 ft 424 kts 221°
2026-05-06 19:19 36.98742 -79.11957 26508 ft 423 kts 221°
2026-05-06 19:19 36.96354 -79.14119 26812 ft 424 kts 221°
2026-05-06 19:20 36.93956 -79.16309 26970 ft 429 kts 221°
2026-05-06 19:20 36.91582 -79.18488 27336 ft 428 kts 221°
2026-05-06 19:20 36.89191 -79.20686 27813 ft 425 kts 221°
2026-05-06 19:20 36.86822 -79.22866 28270 ft 423 kts 221°
2026-05-06 19:21 36.84456 -79.25044 28689 ft 421 kts 221°
2026-05-06 19:21 36.82106 -79.27209 29074 ft 420 kts 221°
2026-05-06 19:21 36.79756 -79.29371 29459 ft 419 kts 221°
2026-05-06 19:21 36.77448 -79.31493 29837 ft 417 kts 221°
2026-05-06 19:22 36.75116 -79.33635 30170 ft 416 kts 221°
2026-05-06 19:22 36.72772 -79.35785 30304 ft 420 kts 222°
2026-05-06 19:22 36.70415 -79.37949 30512 ft 422 kts 222°
2026-05-06 19:22 36.68057 -79.40109 30857 ft 420 kts 222°
2026-05-06 19:23 36.65708 -79.42257 31235 ft 417 kts 223°
2026-05-06 19:23 36.63373 -79.44390 31663 ft 414 kts 223°
2026-05-06 19:23 36.61087 -79.46476 32077 ft 411 kts 224°
2026-05-06 19:23 36.58787 -79.48575 32401 ft 410 kts 224°
2026-05-06 19:24 36.56520 -79.50645 32671 ft 410 kts 224°
2026-05-06 19:24 36.54219 -79.52744 32971 ft 409 kts 225°
2026-05-06 19:24 36.51928 -79.54832 33206 ft 409 kts 225°
2026-05-06 19:24 36.49637 -79.56920 33441 ft 409 kts 226°
2026-05-06 19:25 36.47343 -79.59008 33716 ft 409 kts 226°
2026-05-06 19:25 36.45043 -79.61098 33930 ft 409 kts 226°
2026-05-06 19:25 36.42744 -79.63187 33959 ft 409 kts 226°
2026-05-06 19:26 36.38190 -79.67319 33962 ft 408 kts 226°
2026-05-06 19:26 36.33602 -79.71476 33963 ft 408 kts 226°
2026-05-06 19:27 36.29017 -79.75623 33964 ft 409 kts 226°
2026-05-06 19:27 36.24437 -79.79761 33975 ft 409 kts 226°
2026-05-06 19:28 36.19876 -79.83873 33975 ft 408 kts 226°
2026-05-06 19:28 36.15296 -79.87996 33963 ft 407 kts 226°
2026-05-06 19:29 36.10716 -79.92115 33976 ft 407 kts 226°
2026-05-06 19:29 36.06112 -79.96202 33957 ft 411 kts 223°
2026-05-06 19:30 36.00916 -79.99472 33969 ft 425 kts 214°
2026-05-06 19:30 35.95461 -80.02241 33973 ft 428 kts 213°
2026-05-06 19:31 35.89922 -80.04930 33977 ft 428 kts 213°
2026-05-06 19:31 35.81615 -80.08986 33974 ft 429 kts 212°
2026-05-06 19:32 35.76088 -80.11709 33980 ft 432 kts 212°
2026-05-06 19:32 35.70500 -80.14457 33980 ft 433 kts 212°
2026-05-06 19:33 35.64908 -80.17200 33990 ft 432 kts 212°
2026-05-06 19:33 35.59339 -80.19932 34018 ft 430 kts 212°
2026-05-06 19:34 35.53825 -80.22632 34028 ft 429 kts 212°
2026-05-06 19:34 35.48270 -80.25344 34034 ft 429 kts 212°
2026-05-06 19:35 35.42745 -80.28040 34032 ft 429 kts 212°
2026-05-06 19:35 35.36934 -80.30152 34031 ft 443 kts 201°
2026-05-06 19:36 35.30859 -80.31455 34023 ft 449 kts 198°
2026-05-06 19:36 35.24657 -80.32602 34017 ft 451 kts 198°
2026-05-06 19:37 35.18443 -80.33736 34008 ft 451 kts 198°
2026-05-06 19:37 35.12240 -80.34893 33996 ft 451 kts 198°
2026-05-06 19:38 35.06076 -80.36057 33997 ft 452 kts 198°
2026-05-06 19:38 34.99861 -80.37232 33995 ft 452 kts 198°
2026-05-06 19:39 34.93648 -80.38402 34001 ft 452 kts 198°
2026-05-06 19:39 34.87435 -80.39569 34002 ft 452 kts 198°
2026-05-06 19:40 34.81219 -80.40738 34007 ft 453 kts 198°
2026-05-06 19:40 34.75016 -80.41902 34015 ft 454 kts 198°
2026-05-06 19:41 34.68772 -80.43070 34020 ft 454 kts 198°
2026-05-06 19:41 34.62523 -80.44237 34020 ft 454 kts 198°
2026-05-06 19:42 34.56274 -80.45403 34017 ft 454 kts 198°
2026-05-06 19:42 34.50066 -80.46560 34017 ft 454 kts 198°
2026-05-06 19:43 34.43815 -80.47723 34015 ft 454 kts 198°
2026-05-06 19:43 34.37567 -80.48884 34016 ft 455 kts 198°
2026-05-06 19:44 34.31314 -80.50043 34016 ft 455 kts 198°
2026-05-06 19:44 34.25140 -80.51333 34018 ft 449 kts 202°
2026-05-06 19:45 34.19061 -80.53066 34017 ft 448 kts 203°
2026-05-06 19:45 34.13014 -80.54879 34019 ft 447 kts 203°
2026-05-06 19:46 34.06990 -80.56696 34009 ft 448 kts 204°
2026-05-06 19:46 34.00980 -80.58505 34008 ft 449 kts 204°
2026-05-06 19:47 33.94913 -80.60319 34009 ft 449 kts 204°
2026-05-06 19:47 33.88850 -80.62124 34010 ft 449 kts 204°
2026-05-06 19:48 33.82779 -80.63930 34000 ft 450 kts 204°
2026-05-06 19:48 33.76691 -80.65740 34009 ft 451 kts 204°
2026-05-06 19:49 33.70636 -80.67537 34027 ft 451 kts 204°
2026-05-06 19:49 33.64536 -80.69343 34031 ft 451 kts 204°
2026-05-06 19:50 33.58440 -80.71146 34021 ft 452 kts 204°
2026-05-06 19:50 33.52321 -80.72955 34037 ft 453 kts 204°
2026-05-06 19:51 33.46243 -80.74745 34036 ft 453 kts 204°
2026-05-06 19:51 33.40114 -80.76546 34037 ft 453 kts 204°
2026-05-06 19:52 33.33992 -80.78342 34021 ft 453 kts 204°
2026-05-06 19:52 33.27844 -80.80147 34038 ft 456 kts 204°
2026-05-06 19:53 33.21676 -80.81952 34040 ft 457 kts 204°
2026-05-06 19:53 33.15544 -80.83743 34040 ft 457 kts 204°
2026-05-06 19:54 33.09372 -80.85543 34040 ft 457 kts 204°
2026-05-06 19:54 33.03197 -80.87342 34041 ft 457 kts 204°
2026-05-06 19:55 32.97026 -80.89138 34041 ft 456 kts 204°
2026-05-06 19:55 32.90899 -80.90919 34041 ft 456 kts 204°
2026-05-06 19:56 32.84740 -80.92699 34035 ft 454 kts 205°
2026-05-06 19:56 32.78604 -80.94479 34034 ft 455 kts 205°
2026-05-06 19:57 32.72436 -80.96272 34034 ft 457 kts 205°
2026-05-06 19:57 32.66326 -80.98038 34036 ft 457 kts 205°
2026-05-06 19:58 32.60207 -80.99803 34040 ft 457 kts 205°
2026-05-06 19:58 32.54000 -81.01492 34035 ft 465 kts 199°
2026-05-06 19:59 32.47429 -81.02050 34044 ft 478 kts 192°
2026-05-06 19:59 32.40798 -81.02193 34042 ft 481 kts 191°
2026-05-06 20:00 32.34111 -81.02260 34043 ft 480 kts 191°
2026-05-06 20:00 32.27427 -81.02351 34040 ft 480 kts 190°
2026-05-06 20:01 32.20753 -81.02461 34042 ft 479 kts 190°
2026-05-06 20:01 32.14084 -81.02579 34026 ft 479 kts 190°
2026-05-06 20:02 32.07461 -81.02697 34018 ft 479 kts 190°
2026-05-06 20:02 32.00798 -81.02816 34006 ft 479 kts 190°
2026-05-06 20:03 31.94148 -81.02972 34018 ft 478 kts 190°
2026-05-06 20:03 31.87506 -81.03160 34019 ft 477 kts 190°
2026-05-06 20:04 31.80967 -81.03347 34024 ft 477 kts 190°
2026-05-06 20:04 31.74325 -81.03531 34021 ft 478 kts 190°
2026-05-06 20:05 31.67671 -81.03714 34033 ft 479 kts 190°
2026-05-06 20:05 31.61047 -81.04078 34037 ft 470 kts 198°
2026-05-06 20:06 31.57894 -81.04896 34036 ft 458 kts 207°
2026-05-06 20:06 31.55012 -81.06229 34040 ft 449 kts 213°
2026-05-06 20:06 31.49439 -81.09452 34042 ft 446 kts 217°
2026-05-06 20:07 31.43959 -81.12869 34044 ft 447 kts 217°
2026-05-06 20:07 31.38455 -81.16296 34041 ft 449 kts 217°
2026-05-06 20:08 31.32935 -81.19626 34045 ft 450 kts 216°
2026-05-06 20:08 31.27401 -81.22901 34042 ft 450 kts 216°
2026-05-06 20:09 31.21798 -81.26165 34003 ft 454 kts 212°
2026-05-06 20:09 31.18792 -81.27421 34034 ft 465 kts 204°
2026-05-06 20:09 31.15574 -81.28111 34037 ft 478 kts 193°
2026-05-06 20:10 31.08827 -81.28206 33863 ft 490 kts 183°
2026-05-06 20:10 31.05578 -81.28120 33614 ft 489 kts 188°
2026-05-06 20:10 31.02220 -81.28134 33361 ft 489 kts 188°
2026-05-06 20:11 30.98822 -81.28160 33106 ft 488 kts 188°
2026-05-06 20:11 30.95422 -81.28175 32854 ft 488 kts 188°
2026-05-06 20:11 30.92061 -81.28180 32595 ft 488 kts 188°
2026-05-06 20:11 30.88662 -81.28179 32349 ft 489 kts 188°
2026-05-06 20:12 30.85258 -81.28175 32103 ft 489 kts 188°
2026-05-06 20:12 30.81932 -81.28168 31866 ft 488 kts 188°
2026-05-06 20:12 30.78578 -81.28161 31632 ft 488 kts 188°
2026-05-06 20:12 30.75183 -81.28153 31390 ft 488 kts 188°
2026-05-06 20:13 30.71790 -81.28145 31159 ft 488 kts 188°
2026-05-06 20:13 30.68396 -81.28136 30921 ft 487 kts 188°
2026-05-06 20:13 30.65005 -81.28128 30661 ft 487 kts 187°
2026-05-06 20:13 30.61615 -81.28120 30430 ft 488 kts 187°
2026-05-06 20:14 30.58203 -81.27991 30199 ft 491 kts 184°
2026-05-06 20:14 30.54989 -81.27756 29957 ft 492 kts 183°
2026-05-06 20:14 30.51576 -81.27488 29696 ft 492 kts 183°
2026-05-06 20:14 30.48157 -81.27221 29432 ft 492 kts 183°
2026-05-06 20:15 30.44791 -81.26962 29170 ft 493 kts 183°
2026-05-06 20:15 30.41362 -81.26700 28901 ft 493 kts 183°
2026-05-06 20:15 30.37943 -81.26441 28647 ft 493 kts 183°
2026-05-06 20:15 30.34511 -81.26182 28387 ft 494 kts 183°
2026-05-06 20:16 30.31080 -81.25924 28127 ft 494 kts 183°
2026-05-06 20:16 30.27646 -81.25666 27870 ft 495 kts 183°
2026-05-06 20:16 30.24208 -81.25409 27620 ft 495 kts 182°
2026-05-06 20:16 30.20770 -81.25151 27359 ft 496 kts 182°
2026-05-06 20:17 30.17332 -81.24894 27103 ft 495 kts 182°
2026-05-06 20:17 30.13940 -81.24639 26231 ft 496 kts 182°
2026-05-06 20:17 30.10479 -81.24384 25022 ft 502 kts 181°
2026-05-06 20:17 30.06991 -81.24124 24301 ft 499 kts 181°
2026-05-06 20:18 30.03531 -81.23863 24075 ft 499 kts 181°
2026-05-06 20:18 30.00058 -81.23605 23851 ft 502 kts 181°
2026-05-06 20:18 29.96566 -81.23345 23625 ft 503 kts 181°
2026-05-06 20:18 29.93079 -81.23085 23365 ft 503 kts 181°
2026-05-06 20:19 29.89669 -81.22830 23107 ft 501 kts 181°
2026-05-06 20:19 29.86245 -81.22574 22853 ft 499 kts 181°
2026-05-06 20:19 29.82787 -81.22316 22597 ft 497 kts 181°
2026-05-06 20:19 29.79337 -81.22060 22325 ft 496 kts 181°
2026-05-06 20:20 29.75894 -81.21805 22071 ft 494 kts 181°
2026-05-06 20:20 29.72476 -81.21552 21823 ft 493 kts 181°
2026-05-06 20:20 29.69053 -81.21282 21573 ft 491 kts 180°
2026-05-06 20:20 29.65648 -81.20991 21325 ft 490 kts 180°
2026-05-06 20:21 29.62267 -81.20699 21087 ft 488 kts 180°
2026-05-06 20:21 29.58890 -81.20407 20793 ft 484 kts 180°
2026-05-06 20:21 29.55547 -81.20119 20009 ft 479 kts 180°
2026-05-06 20:21 29.52235 -81.19835 19117 ft 476 kts 179°
2026-05-06 20:22 29.48992 -81.19557 18264 ft 472 kts 179°
2026-05-06 20:22 29.45716 -81.19276 17323 ft 469 kts 179°
2026-05-06 20:22 29.42548 -81.19002 17142 ft 447 kts 179°
2026-05-06 20:22 29.39524 -81.18739 17032 ft 425 kts 179°
2026-05-06 20:23 29.36640 -81.18491 16928 ft 406 kts 179°
2026-05-06 20:23 29.33892 -81.18255 16823 ft 388 kts 179°
2026-05-06 20:23 29.31238 -81.18032 16627 ft 377 kts 180°
2026-05-06 20:23 29.28656 -81.18100 16037 ft 371 kts 190°
2026-05-06 20:24 29.26118 -81.18583 15074 ft 379 kts 194°
2026-05-06 20:24 29.23509 -81.19226 14098 ft 388 kts 195°
2026-05-06 20:24 29.20877 -81.19913 13451 ft 385 kts 195°
2026-05-06 20:24 29.18283 -81.20598 12810 ft 381 kts 195°
2026-05-06 20:25 29.15719 -81.21279 12176 ft 376 kts 194°
2026-05-06 20:25 29.13178 -81.21955 11568 ft 373 kts 195°
2026-05-06 20:25 29.10661 -81.22625 10960 ft 369 kts 194°
2026-05-06 20:25 29.08180 -81.23284 10457 ft 363 kts 194°
2026-05-06 20:26 29.05750 -81.23932 10151 ft 353 kts 194°
2026-05-06 20:26 29.03439 -81.24548 9935 ft 336 kts 194°
2026-05-06 20:26 29.01239 -81.25134 9634 ft 314 kts 194°
2026-05-06 20:26 28.99162 -81.25681 9195 ft 300 kts 194°
2026-05-06 20:27 28.97148 -81.26207 8541 ft 296 kts 194°
2026-05-06 20:27 28.95171 -81.26735 8024 ft 287 kts 194°
2026-05-06 20:27 28.93241 -81.27255 7708 ft 282 kts 194°
2026-05-06 20:27 28.91341 -81.27766 7362 ft 279 kts 194°
2026-05-06 20:28 28.89486 -81.28262 7044 ft 276 kts 194°
2026-05-06 20:28 28.87623 -81.28757 6721 ft 274 kts 194°
2026-05-06 20:28 28.85778 -81.29248 6391 ft 272 kts 194°
2026-05-06 20:28 28.83952 -81.29735 6099 ft 266 kts 193°
2026-05-06 20:29 28.82186 -81.30204 5833 ft 257 kts 194°
2026-05-06 20:29 28.80441 -81.30668 5470 ft 255 kts 193°
2026-05-06 20:29 28.78726 -81.31124 5152 ft 251 kts 193°
2026-05-06 20:29 28.77044 -81.31568 5112 ft 246 kts 193°
2026-05-06 20:30 28.75369 -81.32013 5119 ft 248 kts 193°
2026-05-06 20:30 28.71989 -81.32531 5110 ft 247 kts 181°
2026-05-06 20:30 28.70263 -81.32525 4994 ft 249 kts 179°
2026-05-06 20:31 28.68544 -81.32498 4652 ft 242 kts 179°
2026-05-06 20:31 28.66863 -81.32475 4017 ft 244 kts 179°
2026-05-06 20:31 28.65170 -81.32456 3790 ft 236 kts 179°
2026-05-06 20:31 28.63590 -81.32442 3969 ft 222 kts 180°
2026-05-06 20:32 28.62056 -81.32442 4046 ft 218 kts 179°
2026-05-06 20:32 28.60556 -81.32420 3526 ft 214 kts 179°
2026-05-06 20:32 28.59075 -81.32392 2922 ft 212 kts 179°
2026-05-06 20:32 28.57603 -81.32368 2617 ft 213 kts 179°
2026-05-06 20:33 28.56164 -81.32351 2467 ft 203 kts 179°
2026-05-06 20:33 28.54801 -81.32338 2242 ft 190 kts 179°
2026-05-06 20:33 28.53552 -81.32325 2020 ft 168 kts 179°
2026-05-06 20:33 28.52429 -81.32314 1745 ft 156 kts 179°
2026-05-06 20:34 28.51366 -81.32303 1432 ft 149 kts 180°
2026-05-06 20:34 28.50364 -81.32291 1211 ft 139 kts 179°
2026-05-06 20:34 28.49410 -81.32280 1063 ft 136 kts 179°
2026-05-06 20:34 28.48465 -81.32271 905 ft 135 kts 179°
2026-05-06 20:35 28.47536 -81.32261 699 ft 136 kts 178°
2026-05-06 20:35 28.46587 -81.32250 513 ft 137 kts 179°
2026-05-06 20:35 28.45639 -81.32250 363 ft 135 kts 177°
2026-05-06 20:35 28.44713 -81.32234 157 ft 131 kts 179°
2026-05-06 20:36 28.43868 -81.32230 113 ft 93 kts 178°
2026-05-06 20:36 28.43479 -81.32214 106 ft 38 kts 179°
2026-05-06 20:36 28.43226 -81.32184 104 ft 35 kts 150°
2026-05-06 20:36 28.43095 -81.32006 105 ft 26 kts 122°
2026-05-06 20:37 28.43006 -81.31848 105 ft 22 kts 122°
2026-05-06 20:37 28.42921 -81.31718 105 ft 20 kts 145°
2026-05-06 20:37 28.42828 -81.31682 105 ft 12 kts 166°
2026-05-06 20:37 28.42760 -81.31643 105 ft 7 kts 112°
2026-05-06 20:38 28.42775 -81.31600 105 ft 6 kts 41°
2026-05-06 20:38 28.42799 -81.31577 104 ft 0 kts 39°